Change the Weather History Date:

Tuesday, March 5, 2013

  Actual Average Record
Temperature  
Mean Temperature 48 °F -  
Max Temperature 63 °F 60 °F 81 °F (2015)
Min Temperature 33 °F 39 °F 24 °F (2002)
Degree Days  
Heating Degree Days 17    
Moisture  
Dew Point 32 °F    
Average Humidity 52    
Maximum Humidity 83    
Minimum Humidity 27    
Precipitation  
Precipitation 0.05 in - - ()
Sea Level Pressure  
Sea Level Pressure 29.98 in    
Wind  
Wind Speed 6 mph (SSW)    
Max Wind Speed 21 mph    
Max Gust Speed 26 mph    
Visibility 10 miles    
Events Rain    
Averages and records for this station are not official NWS values.
T = Trace of Precipitation, MM = Missing Value Source: NWS Daily Summary

Daily Weather History Graph

Daily Weather History Graph

Search for Another Location

Airport or City:

Trip Planner

Search our weather history database for the weather conditions in past years. The results will help you decide how hot, cold, wet, or windy it might be!

Date:

Astronomy

Mar. 05, 2013 Rise Set
Actual Time 6:33 AM EST 6:09 PM EST
Civil Twilight 6:08 AM EST 6:34 PM EST
Nautical Twilight 5:39 AM EST 7:03 PM EST
Astronomical Twilight 5:09 AM EST 7:33 PM EST
Moon 1:33 AM EST (3/5) 11:57 AM EST (3/5)
Length of Visible Light 12h 26m
Length of Day
11h 35m
Last Quarter, 41% of the Moon is Illuminated
Mar 5
Last Quarter
Mar 11
New
Mar 19
First Quarter
Mar 27
Full
Apr 3
Last Quarter

Hourly Weather History & Observations

Time (EST) Temp. Windchill Dew Point Humidity Pressure Visibility Wind Dir Wind Speed Gust Speed Precip Events Conditions
12:56 AM 34.0 °F 29.8 °F 21.0 °F 59% 30.12 in 10.0 mi WSW 4.6 mph - N/A   Clear
1:56 AM 35.1 °F 29.3 °F 21.0 °F 57% 30.12 in 10.0 mi WSW 6.9 mph - N/A   Clear
2:56 AM 34.0 °F 31.0 °F 21.0 °F 59% 30.11 in 10.0 mi WSW 3.5 mph - N/A   Clear
3:56 AM 33.1 °F - 21.0 °F 61% 30.11 in 10.0 mi Calm Calm - N/A   Clear
4:56 AM 34.0 °F - 21.0 °F 59% 30.13 in 10.0 mi Calm Calm - N/A   Clear
5:56 AM 36.0 °F 31.1 °F 21.9 °F 57% 30.13 in 10.0 mi WSW 5.8 mph - N/A   Clear
6:56 AM 35.1 °F - 21.9 °F 59% 30.14 in 10.0 mi Calm Calm - N/A   Mostly Cloudy
7:56 AM 41.0 °F - 26.1 °F 55% 30.13 in 10.0 mi Calm Calm - N/A   Scattered Clouds
8:56 AM 48.9 °F - 26.1 °F 41% 30.12 in 9.0 mi WSW 4.6 mph - N/A   Scattered Clouds
9:56 AM 55.9 °F - 25.0 °F 30% 30.09 in 10.0 mi SW 9.2 mph - N/A   Mostly Cloudy
10:56 AM 60.1 °F - 26.1 °F 27% 30.07 in 10.0 mi SW 10.4 mph - N/A   Clear
11:56 AM 63.0 °F - 28.0 °F 27% 30.04 in 10.0 mi SW 8.1 mph - N/A   Scattered Clouds
12:56 PM 62.1 °F - 37.0 °F 39% 30.01 in 10.0 mi SSE 13.8 mph - N/A   Mostly Cloudy
1:56 PM 61.0 °F - 37.0 °F 41% 29.96 in 10.0 mi South 12.7 mph - N/A   Overcast
2:56 PM 59.0 °F - 37.0 °F 44% 29.95 in 10.0 mi SW 11.5 mph - N/A   Overcast
3:56 PM 60.1 °F - 37.0 °F 42% 29.93 in 10.0 mi South 10.4 mph - N/A   Overcast
4:56 PM 59.0 °F - 36.0 °F 42% 29.91 in 10.0 mi South 8.1 mph - N/A   Overcast
5:56 PM 57.0 °F - 39.0 °F 51% 29.89 in 10.0 mi South 6.9 mph - N/A   Clear
6:56 PM 55.0 °F - 41.0 °F 59% 29.86 in 10.0 mi South 4.6 mph - N/A   Scattered Clouds
7:56 PM 55.9 °F - 41.0 °F 57% 29.83 in 10.0 mi SSW 8.1 mph - N/A   Overcast
8:56 PM 57.9 °F - 43.0 °F 58% 29.78 in 10.0 mi South 10.4 mph - N/A   Overcast
9:56 PM 57.9 °F - 46.0 °F 65% 29.74 in 10.0 mi South 10.4 mph 17.3 mph N/A   Overcast
10:56 PM 57.9 °F - 50.0 °F 75% 29.70 in 7.0 mi SSW 12.7 mph 19.6 mph 0.00 in Rain Light Rain
11:56 PM 57.0 °F - 52.0 °F 83% 29.66 in 4.0 mi SSW 20.7 mph 26.5 mph 0.05 in Rain Rain